,,Stat6,,Stat2,,Stat8,,Stat9,,Stat10,,Wind1,,Wind1,
time,status,PA1M_AVG,status,PR1M_SUM,status,RH1M_AVG,status,SR1M_AVG,status,TA1M_AVG,status,W1dAve1m,status,W1sAve1m,
2009-04-20, 00:00:00,VALID,918.347,VALID,0,VALID,100,VALID,-0.101885,VALID,20.6544,VALID,315,VALID,0,
2009-04-20, 00:01:00,VALID,918.332,VALID,0,VALID,100,VALID,-0.101885,VALID,20.6457,VALID,315,VALID,0,
2009-04-20, 00:02:00,VALID,918.303,VALID,0,VALID,100,VALID,-0.0679233,VALID,20.6352,VALID,315,VALID,0,
2009-04-20, 00:03:00,VALID,918.288,VALID,0,VALID,100,VALID,-0.0509425,VALID,20.6279,VALID,315,VALID,0,
2009-04-20, 00:04:00,VALID,918.272,VALID,0,VALID,100,VALID,-0.0339617,VALID,20.6249,VALID,315,VALID,0,
2009-04-20, 00:05:00,VALID,918.245,VALID,0,VALID,100,VALID,-0.0509425,VALID,20.5892,VALID,315,VALID,0,
2009-04-20, 00:06:00,VALID,918.241,VALID,0,VALID,100,VALID,-0.0679233,VALID,20.5573,VALID,315,VALID,0,
2009-04-20, 00:07:00,VALID,918.234,VALID,0,VALID,100,VALID,-0.0169808,VALID,20.5373,VALID,315,VALID,0,
2009-04-20, 00:08:00,VALID,918.247,VALID,0,VALID,100,VALID,-0.0339617,VALID,20.4881,VALID,315,VALID,0,
2009-04-20, 00:09:00,VALID,918.258,VALID,0,VALID,100,VALID,-0.0169808,VALID,20.4332,VALID,315,VALID,0,
2009-04-20, 00:10:00,VALID,918.26,VALID,0,VALID,100,VALID,0,VALID,20.4294,VALID,323,VALID,0,
2009-04-20, 00:11:00,VALID,918.272,VALID,0,VALID,100,VALID,0,VALID,20.3912,VALID,2,VALID,0,
2009-04-20, 00:12:00,VALID,918.28,VALID,0,VALID,100,VALID,-0.0169808,VALID,20.3818,VALID,2,VALID,0,
2009-04-20, 00:13:00,VALID,918.296,VALID,0,VALID,100,VALID,-0.0169808,VALID,20.414,VALID,5,VALID,0,
2009-04-20, 00:14:00,VALID,918.315,VALID,0,VALID,100,VALID,-0.0509425,VALID,20.4499,VALID,7,VALID,0,
2009-04-20, 00:15:00,VALID,918.331,VALID,0,VALID,100,VALID,-0.0169808,VALID,20.4697,VALID,12,VALID,0,
2009-04-20, 00:16:00,VALID,918.318,VALID,0,VALID,100,VALID,-0.0509425,VALID,20.4337,VALID,14,VALID,0,
2009-04-20, 00:17:00,VALID,918.322,VALID,0,VALID,100,VALID,-0.0509425,VALID,20.4304,VALID,14,VALID,0,
2009-04-20, 00:18:00,VALID,918.321,VALID,0,VALID,100,VALID,0,VALID,20.4137,VALID,14,VALID,0,
2009-04-20, 00:19:00,VALID,918.306,VALID,0,VALID,100,VALID,0,VALID,20.4299,VALID,14,VALID,0,
2009-04-20, 00:20:00,VALID,918.291,VALID,0,VALID,100,VALID,-0.0169808,VALID,20.4267,VALID,14,VALID,0,
2009-04-20, 00:21:00,VALID,918.292,VALID,0,VALID,100,VALID,-0.0679233,VALID,20.4327,VALID,14,VALID,0,
2009-04-20, 00:22:00,VALID,918.276,VALID,0,VALID,100,VALID,-0.0169808,VALID,20.4632,VALID,14,VALID,0,
2009-04-20, 00:23:00,VALID,918.267,VALID,0,VALID,100,VALID,0,VALID,20.4462,VALID,14,VALID,0,
2009-04-20, 00:24:00,VALID,918.27,VALID,0,VALID,100,VALID,0,VALID,20.4269,VALID,14,VALID,0,
2009-04-20, 00:25:00,VALID,918.263,VALID,0,VALID,100,VALID,-0.0339617,VALID,20.4327,VALID,14,VALID,0,
2009-04-20, 00:26:00,VALID,918.252,VALID,0,VALID,100,VALID,0,VALID,20.4105,VALID,16,VALID,0,
2009-04-20, 00:27:00,VALID,918.223,VALID,0,VALID,100,VALID,-0.0169808,VALID,20.4404,VALID,26,VALID,0.0133929,
2009-04-20, 00:28:00,VALID,918.199,VALID,0,VALID,100,VALID,-0.0509425,VALID,20.4919,VALID,32,VALID,0,
2009-04-20, 00:29:00,VALID,918.195,VALID,0,VALID,100,VALID,-0.0339617,VALID,20.5176,VALID,23,VALID,0,
2009-04-20, 00:30:00,VALID,918.18,VALID,0,VALID,100,VALID,-0.0339617,VALID,20.5473,VALID,53,VALID,0.00400152,
2009-04-20, 00:31:00,VALID,918.193,VALID,0,VALID,100,VALID,0,VALID,20.5952,VALID,39,VALID,0,
2009-04-20, 00:32:00,VALID,918.206,VALID,0,VALID,100,VALID,-0.0169808,VALID,20.6114,VALID,38,VALID,0,
2009-04-20, 00:33:00,VALID,918.224,VALID,0,VALID,100,VALID,-0.0169808,VALID,20.6214,VALID,38,VALID,0,
2009-04-20, 00:34:00,VALID,918.233,VALID,0,VALID,100,VALID,-0.0509425,VALID,20.6441,VALID,38,VALID,0,
2009-04-20, 00:35:00,VALID,918.221,VALID,0,VALID,100,VALID,-0.0169808,VALID,20.6666,VALID,27,VALID,0,
2009-04-20, 00:36:00,VALID,918.215,VALID,0,VALID,100,VALID,0,VALID,20.6826,VALID,23,VALID,0,
2009-04-20, 00:37:00,VALID,918.202,VALID,0,VALID,100,VALID,-0.0169808,VALID,20.6893,VALID,23,VALID,0,
2009-04-20, 00:38:00,VALID,918.178,VALID,0,VALID,100,VALID,-0.0169808,VALID,20.6663,VALID,23,VALID,0,
2009-04-20, 00:39:00,VALID,918.18,VALID,0,VALID,100,VALID,-0.0509425,VALID,20.6187,VALID,23,VALID,0,
2009-04-20, 00:40:00,VALID,918.18,VALID,0,VALID,100,VALID,0,VALID,20.5922,VALID,23,VALID,0,
2009-04-20, 00:41:00,VALID,918.17,VALID,0,VALID,100,VALID,-0.0339617,VALID,20.6154,VALID,23,VALID,0,
2009-04-20, 00:42:00,VALID,918.172,VALID,0,VALID,100,VALID,-0.0339617,VALID,20.6084,VALID,23,VALID,0,
2009-04-20, 00:43:00,VALID,918.17,VALID,0,VALID,100,VALID,0,VALID,20.6022,VALID,23,VALID,0,
2009-04-20, 00:44:00,VALID,918.161,VALID,0,VALID,100,VALID,0,VALID,20.5852,VALID,23,VALID,0,
2009-04-20, 00:45:00,VALID,918.138,VALID,0,VALID,100,VALID,0,VALID,20.6117,VALID,23,VALID,0,
2009-04-20, 00:46:00,VALID,918.115,VALID,0,VALID,100,VALID,0,VALID,20.6179,VALID,23,VALID,0,
2009-04-20, 00:47:00,VALID,918.099,VALID,0,VALID,100,VALID,-0.0509425,VALID,20.6247,VALID,23,VALID,0,
2009-04-20, 00:48:00,VALID,918.087,VALID,0,VALID,100,VALID,0,VALID,20.6436,VALID,23,VALID,0,
2009-04-20, 00:49:00,VALID,918.081,VALID,0,VALID,100,VALID,-0.0509425,VALID,20.6274,VALID,23,VALID,0,
2009-04-20, 00:50:00,VALID,918.065,VALID,0,VALID,100,VALID,0,VALID,20.6144,VALID,23,VALID,0,
2009-04-20, 00:51:00,VALID,918.044,VALID,0,VALID,100,VALID,0,VALID,20.6144,VALID,23,VALID,0,
2009-04-20, 00:52:00,VALID,918.038,VALID,0,VALID,100,VALID,-0.0339617,VALID,20.6317,VALID,23,VALID,0,
2009-04-20, 00:53:00,VALID,918.013,VALID,0,VALID,100,VALID,-0.0169808,VALID,20.6149,VALID,23,VALID,0,
2009-04-20, 00:54:00,VALID,918.016,VALID,0,VALID,100,VALID,-0.0169808,VALID,20.6057,VALID,23,VALID,0,
2009-04-20, 00:55:00,VALID,917.992,VALID,0,VALID,100,VALID,-0.0339617,VALID,20.6049,VALID,23,VALID,0,
2009-04-20, 00:56:00,VALID,917.974,VALID,0,VALID,100,VALID,0,VALID,20.6279,VALID,23,VALID,0,
2009-04-20, 00:57:00,VALID,917.96,VALID,0,VALID,100,VALID,0,VALID,20.6376,VALID,23,VALID,0,
2009-04-20, 00:58:00,VALID,917.955,VALID,0,VALID,100,VALID,0,VALID,20.6501,VALID,23,VALID,0,
2009-04-20, 00:59:00,VALID,917.962,VALID,0,VALID,100,VALID,0,VALID,20.6149,VALID,23,VALID,0,
2009-04-20, 01:00:00,VALID,917.954,VALID,0,VALID,100,VALID,-0.0169808,VALID,20.5822,VALID,23,VALID,0,
2009-04-20, 01:01:00,VALID,917.951,VALID,0,VALID,100,VALID,-0.0509425,VALID,20.5895,VALID,23,VALID,0,
2009-04-20, 01:02:00,VALID,917.942,VALID,0,VALID,100,VALID,-0.0169808,VALID,20.6084,VALID,23,VALID,0,
2009-04-20, 01:03:00,VALID,917.933,VALID,0,VALID,100,VALID,0,VALID,20.6441,VALID,23,VALID,0,
2009-04-20, 01:04:00,VALID,917.931,VALID,0,VALID,100,VALID,-0.0169808,VALID,20.6306,VALID,21,VALID,0,
2009-04-20, 01:05:00,VALID,917.931,VALID,0,VALID,100,VALID,-0.0339617,VALID,20.6244,VALID,18,VALID,0,
2009-04-20, 01:06:00,VALID,917.925,VALID,0,VALID,100,VALID,-0.0339617,VALID,20.6214,VALID,32,VALID,0,
2009-04-20, 01:07:00,VALID,917.941,VALID,0,VALID,100,VALID,-0.0339617,VALID,20.6339,VALID,36,VALID,0.0362043,
2009-04-20, 01:08:00,VALID,917.935,VALID,0,VALID,100,VALID,-0.0339617,VALID,20.6671,VALID,14,VALID,0.0587713,
2009-04-20, 01:09:00,VALID,917.934,VALID,0,VALID,100,VALID,-0.0339617,VALID,20.6701,VALID,18,VALID,0.00130208,
2009-04-20, 01:10:00,VALID,917.927,VALID,0,VALID,100,VALID,-0.0339617,VALID,20.7023,VALID,21,VALID,0,
2009-04-20, 01:11:00,VALID,917.909,VALID,0,VALID,100,VALID,-0.0169808,VALID,20.7477,VALID,5,VALID,0,
2009-04-20, 01:12:00,VALID,917.903,VALID,0,VALID,100,VALID,-0.0509425,VALID,20.7802,VALID,10,VALID,0,
2009-04-20, 01:13:00,VALID,917.883,VALID,0,VALID,100,VALID,-0.0169808,VALID,20.7929,VALID,11,VALID,0,
2009-04-20, 01:14:00,VALID,917.866,VALID,0,VALID,100,VALID,-0.0169808,VALID,20.8162,VALID,17,VALID,0,
2009-04-20, 01:15:00,VALID,917.859,VALID,0,VALID,100,VALID,-0.0169808,VALID,20.8326,VALID,6,VALID,0,
2009-04-20, 01:16:00,VALID,917.83,VALID,0,VALID,100,VALID,-0.0169808,VALID,20.8616,VALID,360,VALID,0,
2009-04-20, 01:17:00,VALID,917.822,VALID,0,VALID,100,VALID,0.0169808,VALID,20.8676,VALID,15,VALID,0,
2009-04-20, 01:18:00,VALID,917.809,VALID,0,VALID,100,VALID,-0.0169808,VALID,20.8773,VALID,12,VALID,0,
2009-04-20, 01:19:00,VALID,917.799,VALID,0,VALID,100,VALID,-0.0169808,VALID,20.8743,VALID,18,VALID,0,
2009-04-20, 01:20:00,VALID,917.795,VALID,0,VALID,100,VALID,0,VALID,20.8776,VALID,9,VALID,0,
2009-04-20, 01:21:00,VALID,917.8,VALID,0,VALID,100,VALID,0,VALID,20.874,VALID,14,VALID,0,
2009-04-20, 01:22:00,VALID,917.794,VALID,0,VALID,100,VALID,-0.0339617,VALID,20.8905,VALID,14,VALID,0,
2009-04-20, 01:23:00,VALID,917.789,VALID,0,VALID,100,VALID,-0.0169808,VALID,20.9133,VALID,14,VALID,0,
2009-04-20, 01:24:00,VALID,917.769,VALID,0,VALID,100,VALID,0,VALID,20.9198,VALID,14,VALID,0,
2009-04-20, 01:25:00,VALID,917.749,VALID,0,VALID,100,VALID,-0.0169808,VALID,20.9097,VALID,14,VALID,0,
2009-04-20, 01:26:00,VALID,917.722,VALID,0,VALID,100,VALID,-0.0169808,VALID,20.9135,VALID,14,VALID,0,
2009-04-20, 01:27:00,VALID,917.697,VALID,0,VALID,100,VALID,-0.0509425,VALID,20.9135,VALID,14,VALID,0,
2009-04-20, 01:28:00,VALID,917.671,VALID,0,VALID,100,VALID,-0.0509425,VALID,20.9073,VALID,14,VALID,0,
2009-04-20, 01:29:00,VALID,917.65,VALID,0,VALID,100,VALID,-0.0169808,VALID,20.8976,VALID,14,VALID,0,
2009-04-20, 01:30:00,VALID,917.641,VALID,0,VALID,100,VALID,-0.0509425,VALID,20.8843,VALID,14,VALID,0,
2009-04-20, 01:31:00,VALID,917.616,VALID,0,VALID,100,VALID,-0.0339617,VALID,20.8656,VALID,14,VALID,0,
2009-04-20, 01:32:00,VALID,917.586,VALID,0,VALID,100,VALID,-0.0169808,VALID,20.8454,VALID,14,VALID,0,
2009-04-20, 01:33:00,VALID,917.564,VALID,0,VALID,100,VALID,-0.0679233,VALID,20.8459,VALID,14,VALID,0,
2009-04-20, 01:34:00,VALID,917.536,VALID,0,VALID,100,VALID,-0.0339617,VALID,20.8197,VALID,14,VALID,0,
2009-04-20, 01:35:00,VALID,917.531,VALID,0,VALID,100,VALID,-0.0169808,VALID,20.8062,VALID,14,VALID,0,
2009-04-20, 01:36:00,VALID,917.522,VALID,0,VALID,100,VALID,-0.0509425,VALID,20.8359,VALID,14,VALID,0,
2009-04-20, 01:37:00,VALID,917.522,VALID,0,VALID,100,VALID,-0.0339617,VALID,20.8429,VALID,14,VALID,0,
2009-04-20, 01:38:00,VALID,917.533,VALID,0,VALID,100,VALID,-0.0509425,VALID,20.8162,VALID,14,VALID,0,
2009-04-20, 01:39:00,VALID,917.523,VALID,0,VALID,100,VALID,-0.0339617,VALID,20.8197,VALID,14,VALID,0,
2009-04-20, 01:40:00,VALID,917.505,VALID,0,VALID,100,VALID,0,VALID,20.8256,VALID,16,VALID,0,
2009-04-20, 01:41:00,VALID,917.504,VALID,0,VALID,100,VALID,-0.0169808,VALID,20.8424,VALID,39,VALID,0,
2009-04-20, 01:42:00,VALID,917.495,VALID,0,VALID,100,VALID,-0.0679233,VALID,20.8104,VALID,60,VALID,0,
2009-04-20, 01:43:00,VALID,917.479,VALID,0,VALID,100,VALID,0,VALID,20.7775,VALID,60,VALID,0,
2009-04-20, 01:44:00,VALID,917.468,VALID,0,VALID,100,VALID,-0.0339617,VALID,20.7742,VALID,60,VALID,0,
2009-04-20, 01:45:00,VALID,917.447,VALID,0,VALID,100,VALID,-0.0339617,VALID,20.761,VALID,60,VALID,0,
2009-04-20, 01:46:00,VALID,917.43,VALID,0,VALID,100,VALID,0,VALID,20.7415,VALID,60,VALID,0,
2009-04-20, 01:47:00,VALID,917.41,VALID,0,VALID,100,VALID,0,VALID,20.725,VALID,45,VALID,0,
2009-04-20, 01:48:00,VALID,917.38,VALID,0,VALID,100,VALID,-0.0169808,VALID,20.7155,VALID,31,VALID,0,
2009-04-20, 01:49:00,VALID,917.362,VALID,0,VALID,100,VALID,-0.0169808,VALID,20.6858,VALID,31,VALID,0,
2009-04-20, 01:50:00,VALID,917.343,VALID,0,VALID,100,VALID,-0.0339617,VALID,20.6796,VALID,31,VALID,0,
2009-04-20, 01:51:00,VALID,917.326,VALID,0,VALID,100,VALID,-0.0509425,VALID,20.6936,VALID,31,VALID,0,
2009-04-20, 01:52:00,VALID,917.309,VALID,0,VALID,100,VALID,-0.0169808,VALID,20.7026,VALID,31,VALID,0,
2009-04-20, 01:53:00,VALID,917.295,VALID,0,VALID,100,VALID,-0.0339617,VALID,20.7293,VALID,31,VALID,0,
2009-04-20, 01:54:00,VALID,917.288,VALID,0,VALID,100,VALID,-0.0339617,VALID,20.761,VALID,31,VALID,0,
2009-04-20, 01:55:00,VALID,917.279,VALID,0,VALID,100,VALID,-0.0169808,VALID,20.7832,VALID,31,VALID,0,
2009-04-20, 01:56:00,VALID,917.267,VALID,0,VALID,100,VALID,-0.0169808,VALID,20.7899,VALID,31,VALID,0,
2009-04-20, 01:57:00,VALID,917.247,VALID,0,VALID,100,VALID,-0.0169808,VALID,20.8032,VALID,28,VALID,0.00190549,
2009-04-20, 01:58:00,VALID,917.233,VALID,0,VALID,100,VALID,-0.0339617,VALID,20.7999,VALID,29,VALID,0.000186012,
2009-04-20, 01:59:00,VALID,917.224,VALID,0,VALID,100,VALID,-0.0339617,VALID,20.7899,VALID,19,VALID,0.000952744,
2009-04-20, 02:00:00,VALID,917.208,VALID,0,VALID,100,VALID,0,VALID,20.7967,VALID,17,VALID,0,
2009-04-20, 02:01:00,VALID,917.212,VALID,0,VALID,100,VALID,-0.0339617,VALID,20.7964,VALID,31,VALID,0,
2009-04-20, 02:02:00,VALID,917.205,VALID,0,VALID,100,VALID,-0.0679233,VALID,20.7969,VALID,19,VALID,0,
2009-04-20, 02:03:00,VALID,917.197,VALID,0,VALID,100,VALID,-0.0169808,VALID,20.7864,VALID,24,VALID,0,
2009-04-20, 02:04:00,VALID,917.215,VALID,0,VALID,100,VALID,-0.0169808,VALID,20.7702,VALID,15,VALID,0.00190549,
2009-04-20, 02:05:00,VALID,917.206,VALID,0,VALID,100,VALID,-0.0169808,VALID,20.7807,VALID,21,VALID,0.219131,
2009-04-20, 02:06:00,VALID,917.213,VALID,0,VALID,100,VALID,-0.0339617,VALID,20.7737,VALID,16,VALID,0.0578497,
2009-04-20, 02:07:00,VALID,917.19,VALID,0,VALID,100,VALID,-0.101885,VALID,20.7718,VALID,19,VALID,0.00114329,
2009-04-20, 02:08:00,VALID,917.177,VALID,0,VALID,100,VALID,-0.0679233,VALID,20.7747,VALID,25,VALID,0.0578497,
2009-04-20, 02:09:00,VALID,917.158,VALID,0,VALID,100,VALID,-0.0509425,VALID,20.7945,VALID,26,VALID,0,
2009-04-20, 02:10:00,VALID,917.137,VALID,0,VALID,100,VALID,-0.0339617,VALID,20.8107,VALID,26,VALID,0,
2009-04-20, 02:11:00,VALID,917.106,VALID,0,VALID,100,VALID,-0.0679233,VALID,20.8237,VALID,26,VALID,0,
2009-04-20, 02:12:00,VALID,917.077,VALID,0,VALID,100,VALID,-0.0849042,VALID,20.8267,VALID,21,VALID,0,
2009-04-20, 02:13:00,VALID,917.051,VALID,0,VALID,100,VALID,-0.0679233,VALID,20.8172,VALID,357,VALID,0,
2009-04-20, 02:14:00,VALID,917.008,VALID,0,VALID,100,VALID,-0.0679233,VALID,20.8172,VALID,357,VALID,0,
2009-04-20, 02:15:00,VALID,916.974,VALID,0,VALID,100,VALID,-0.0679233,VALID,20.8137,VALID,356,VALID,0,
2009-04-20, 02:16:00,VALID,916.933,VALID,0,VALID,100,VALID,-0.0679233,VALID,20.8069,VALID,356,VALID,0,
2009-04-20, 02:17:00,VALID,916.907,VALID,0,VALID,100,VALID,-0.0509425,VALID,20.8102,VALID,356,VALID,0,
2009-04-20, 02:18:00,VALID,916.872,VALID,0,VALID,100,VALID,-0.0169808,VALID,20.8075,VALID,356,VALID,0,
2009-04-20, 02:19:00,VALID,916.851,VALID,0,VALID,100,VALID,-0.0679233,VALID,20.8042,VALID,356,VALID,0,
2009-04-20, 02:20:00,VALID,916.821,VALID,0,VALID,100,VALID,-0.0339617,VALID,20.8172,VALID,356,VALID,0,
2009-04-20, 02:21:00,VALID,916.802,VALID,0,VALID,100,VALID,-0.0679233,VALID,20.8172,VALID,4,VALID,0,
2009-04-20, 02:22:00,VALID,916.757,VALID,0,VALID,100,VALID,0.0339617,VALID,20.7994,VALID,11,VALID,0,
2009-04-20, 02:23:00,VALID,916.715,VALID,0,VALID,100,VALID,0.0169808,VALID,20.7802,VALID,18,VALID,0,
2009-04-20, 02:24:00,VALID,916.674,VALID,0,VALID,100,VALID,0.0339617,VALID,20.7637,VALID,15,VALID,0,
2009-04-20, 02:25:00,VALID,916.649,VALID,0,VALID,100,VALID,0.0169808,VALID,20.7634,VALID,16,VALID,0,
2009-04-20, 02:26:00,VALID,916.628,VALID,0,VALID,100,VALID,0.0509425,VALID,20.7802,VALID,16,VALID,0,
2009-04-20, 02:27:00,VALID,916.623,VALID,0,VALID,100,VALID,0,VALID,20.7861,VALID,16,VALID,0,
2009-04-20, 02:28:00,VALID,916.607,VALID,0,VALID,100,VALID,0.0169808,VALID,20.8026,VALID,16,VALID,0,
2009-04-20, 02:29:00,VALID,916.592,VALID,0,VALID,100,VALID,0.0339617,VALID,20.8159,VALID,16,VALID,0,
2009-04-20, 02:30:00,VALID,916.583,VALID,0,VALID,100,VALID,0.0169808,VALID,20.8126,VALID,17,VALID,0,
2009-04-20, 02:31:00,VALID,916.559,VALID,0,VALID,100,VALID,0.0339617,VALID,20.8221,VALID,17,VALID,0,
2009-04-20, 02:32:00,VALID,916.564,VALID,0,VALID,100,VALID,0.0169808,VALID,20.8091,VALID,17,VALID,0,
2009-04-20, 02:33:00,VALID,916.565,VALID,0,VALID,100,VALID,0.0169808,VALID,20.7997,VALID,17,VALID,0,
2009-04-20, 02:34:00,VALID,916.553,VALID,0,VALID,100,VALID,0,VALID,20.7767,VALID,17,VALID,0,
2009-04-20, 02:35:00,VALID,916.563,VALID,0,VALID,100,VALID,0.0679233,VALID,20.7572,VALID,17,VALID,0,
2009-04-20, 02:36:00,VALID,916.553,VALID,0,VALID,100,VALID,0.0509425,VALID,20.731,VALID,17,VALID,0,
2009-04-20, 02:37:00,VALID,916.549,VALID,0,VALID,100,VALID,0,VALID,20.7312,VALID,17,VALID,0,
2009-04-20, 02:38:00,VALID,916.536,VALID,0,VALID,100,VALID,0.0169808,VALID,20.728,VALID,17,VALID,0,
2009-04-20, 02:39:00,VALID,916.544,VALID,0,VALID,100,VALID,0.0169808,VALID,20.7055,VALID,17,VALID,0,
2009-04-20, 02:40:00,VALID,916.542,VALID,0,VALID,100,VALID,0.0169808,VALID,20.6761,VALID,17,VALID,0,
2009-04-20, 02:41:00,VALID,916.542,VALID,0,VALID,100,VALID,-0.0169808,VALID,20.6763,VALID,45,VALID,0.00342988,
2009-04-20, 02:42:00,VALID,916.55,VALID,0,VALID,100,VALID,0.0679233,VALID,20.6726,VALID,41,VALID,0,
2009-04-20, 02:43:00,VALID,916.559,VALID,0,VALID,100,VALID,0,VALID,20.6566,VALID,41,VALID,0,
2009-04-20, 02:44:00,VALID,916.553,VALID,0,VALID,100,VALID,0.0509425,VALID,20.6241,VALID,41,VALID,0,
2009-04-20, 02:45:00,VALID,916.54,VALID,0,VALID,100,VALID,0.0339617,VALID,20.6109,VALID,37,VALID,0,
2009-04-20, 02:46:00,VALID,916.531,VALID,0,VALID,100,VALID,0,VALID,20.5755,VALID,35,VALID,0,
2009-04-20, 02:47:00,VALID,916.53,VALID,0,VALID,100,VALID,0,VALID,20.5527,VALID,29,VALID,0,
2009-04-20, 02:48:00,VALID,916.533,VALID,0,VALID,100,VALID,0,VALID,20.5205,VALID,27,VALID,0,
2009-04-20, 02:49:00,VALID,916.536,VALID,0,VALID,100,VALID,0.0169808,VALID,20.4816,VALID,27,VALID,0,
2009-04-20, 02:50:00,VALID,916.542,VALID,0,VALID,100,VALID,0,VALID,20.4591,VALID,27,VALID,0,
2009-04-20, 02:51:00,VALID,916.527,VALID,0,VALID,100,VALID,0.0509425,VALID,20.4424,VALID,27,VALID,0,
2009-04-20, 02:52:00,VALID,916.53,VALID,0,VALID,100,VALID,-0.0849042,VALID,20.4115,VALID,27,VALID,0,
2009-04-20, 02:53:00,VALID,916.525,VALID,0,VALID,100,VALID,-0.0339617,VALID,20.376,VALID,27,VALID,0,
2009-04-20, 02:54:00,VALID,916.516,VALID,0,VALID,100,VALID,-0.0849042,VALID,20.3533,VALID,27,VALID,0,
2009-04-20, 02:55:00,VALID,916.507,VALID,0,VALID,100,VALID,-0.0849042,VALID,20.3403,VALID,27,VALID,0,
2009-04-20, 02:56:00,VALID,916.488,VALID,0,VALID,100,VALID,-0.0849042,VALID,20.3174,VALID,27,VALID,0,
2009-04-20, 02:57:00,VALID,916.47,VALID,0,VALID,100,VALID,-0.0849042,VALID,20.3141,VALID,27,VALID,0,
2009-04-20, 02:58:00,VALID,916.461,VALID,0,VALID,100,VALID,-0.0509425,VALID,20.2947,VALID,27,VALID,0,
2009-04-20, 02:59:00,VALID,916.454,VALID,0,VALID,100,VALID,-0.0679233,VALID,20.2812,VALID,27,VALID,0,
2009-04-20, 03:00:00,VALID,916.456,VALID,0,VALID,100,VALID,-0.0849042,VALID,20.2687,VALID,27,VALID,0,
2009-04-20, 03:01:00,VALID,916.451,VALID,0,VALID,100,VALID,-0.0849042,VALID,20.2722,VALID,27,VALID,0,
2009-04-20, 03:02:00,VALID,916.454,VALID,0,VALID,100,VALID,-0.0849042,VALID,20.2395,VALID,27,VALID,0,
2009-04-20, 03:03:00,VALID,916.471,VALID,0,VALID,100,VALID,-0.0849042,VALID,20.207,VALID,27,VALID,0,
2009-04-20, 03:04:00,VALID,916.485,VALID,0,VALID,100,VALID,-0.0849042,VALID,20.1646,VALID,27,VALID,0,
2009-04-20, 03:05:00,VALID,916.505,VALID,0,VALID,100,VALID,-0.0679233,VALID,20.1549,VALID,27,VALID,0,
2009-04-20, 03:06:00,VALID,916.502,VALID,0,VALID,100,VALID,-0.101885,VALID,20.1486,VALID,27,VALID,0,
2009-04-20, 03:07:00,VALID,916.506,VALID,0,VALID,100,VALID,0,VALID,20.1436,VALID,27,VALID,0,
2009-04-20, 03:08:00,VALID,916.502,VALID,0,VALID,100,VALID,0.0339617,VALID,20.1374,VALID,27,VALID,0,
2009-04-20, 03:09:00,VALID,916.493,VALID,0,VALID,100,VALID,0.0339617,VALID,20.1309,VALID,27,VALID,0,
2009-04-20, 03:10:00,VALID,916.464,VALID,0,VALID,100,VALID,0.0169808,VALID,20.1403,VALID,27,VALID,0,
2009-04-20, 03:11:00,VALID,916.468,VALID,0,VALID,100,VALID,0,VALID,20.1473,VALID,27,VALID,0,
2009-04-20, 03:12:00,VALID,916.47,VALID,0,VALID,100,VALID,0,VALID,20.1728,VALID,30,VALID,0,
2009-04-20, 03:13:00,VALID,916.47,VALID,0,VALID,100,VALID,0.0169808,VALID,20.1176,VALID,47,VALID,0,
2009-04-20, 03:14:00,VALID,916.495,VALID,0,VALID,100,VALID,0.0169808,VALID,20.0527,VALID,49,VALID,0,
2009-04-20, 03:15:00,VALID,916.513,VALID,0,VALID,100,VALID,0.0169808,VALID,20.0038,VALID,49,VALID,0,
2009-04-20, 03:16:00,VALID,916.522,VALID,0,VALID,100,VALID,0.0169808,VALID,19.9781,VALID,53,VALID,0,
2009-04-20, 03:17:00,VALID,916.549,VALID,0,VALID,100,VALID,0.0509425,VALID,19.9324,VALID,54,VALID,0,
2009-04-20, 03:18:00,VALID,916.56,VALID,0,VALID,100,VALID,0.0339617,VALID,19.8735,VALID,58,VALID,0,
2009-04-20, 03:19:00,VALID,916.583,VALID,0,VALID,100,VALID,0.0339617,VALID,19.8516,VALID,61,VALID,0,
2009-04-20, 03:20:00,VALID,916.59,VALID,0,VALID,100,VALID,0.0339617,VALID,19.8256,VALID,61,VALID,0,
2009-04-20, 03:21:00,VALID,916.578,VALID,0,VALID,100,VALID,0.0509425,VALID,19.8029,VALID,61,VALID,0,
2009-04-20, 03:22:00,VALID,916.582,VALID,0,VALID,100,VALID,0.0339617,VALID,19.7837,VALID,61,VALID,0,
2009-04-20, 03:23:00,VALID,916.576,VALID,0,VALID,100,VALID,0.0509425,VALID,19.7664,VALID,61,VALID,0,
2009-04-20, 03:24:00,VALID,916.571,VALID,0,VALID,100,VALID,0,VALID,19.7959,VALID,61,VALID,0,
2009-04-20, 03:25:00,VALID,916.58,VALID,0,VALID,100,VALID,0.0169808,VALID,19.8448,VALID,61,VALID,0,
2009-04-20, 03:26:00,VALID,916.6,VALID,0,VALID,100,VALID,0.0339617,VALID,19.8837,VALID,61,VALID,0,
2009-04-20, 03:27:00,VALID,916.614,VALID,0,VALID,100,VALID,0.0339617,VALID,19.9194,VALID,60,VALID,0,
2009-04-20, 03:28:00,VALID,916.648,VALID,0,VALID,100,VALID,0.0679233,VALID,19.9454,VALID,60,VALID,0,
2009-04-20, 03:29:00,VALID,916.676,VALID,0,VALID,100,VALID,0.0339617,VALID,19.9541,VALID,60,VALID,0,
2009-04-20, 03:30:00,VALID,916.7,VALID,0,VALID,100,VALID,0.0339617,VALID,19.9714,VALID,60,VALID,0,
2009-04-20, 03:31:00,VALID,916.707,VALID,0,VALID,100,VALID,0.0679233,VALID,19.9711,VALID,60,VALID,0,
2009-04-20, 03:32:00,VALID,916.712,VALID,0,VALID,100,VALID,0.0339617,VALID,19.9703,VALID,60,VALID,0,
2009-04-20, 03:33:00,VALID,916.704,VALID,0,VALID,100,VALID,0.0509425,VALID,19.9679,VALID,60,VALID,0,
2009-04-20, 03:34:00,VALID,916.696,VALID,0,VALID,100,VALID,0.0509425,VALID,19.9611,VALID,60,VALID,0,
2009-04-20, 03:35:00,VALID,916.676,VALID,0,VALID,100,VALID,0.0169808,VALID,19.9519,VALID,60,VALID,0,
2009-04-20, 03:36:00,VALID,916.655,VALID,0,VALID,100,VALID,0.0339617,VALID,19.9387,VALID,60,VALID,0,
2009-04-20, 03:37:00,VALID,916.632,VALID,0,VALID,100,VALID,0.0169808,VALID,19.9416,VALID,60,VALID,0,
2009-04-20, 03:38:00,VALID,916.612,VALID,0,VALID,100,VALID,0,VALID,19.9586,VALID,60,VALID,0,
2009-04-20, 03:39:00,VALID,916.587,VALID,0,VALID,100,VALID,0.0169808,VALID,19.9549,VALID,60,VALID,0,
2009-04-20, 03:40:00,VALID,916.565,VALID,0,VALID,100,VALID,0.0679233,VALID,19.9514,VALID,60,VALID,0,
2009-04-20, 03:41:00,VALID,916.535,VALID,0,VALID,100,VALID,0.0849042,VALID,19.9611,VALID,60,VALID,0,
2009-04-20, 03:42:00,VALID,916.507,VALID,0,VALID,100,VALID,0.0339617,VALID,19.9768,VALID,60,VALID,0,
2009-04-20, 03:43:00,VALID,916.506,VALID,0,VALID,100,VALID,0.0679233,VALID,19.9838,VALID,60,VALID,0,
2009-04-20, 03:44:00,VALID,916.494,VALID,0,VALID,100,VALID,0.0339617,VALID,19.9808,VALID,50,VALID,0,
2009-04-20, 03:45:00,VALID,916.487,VALID,0,VALID,100,VALID,0.0509425,VALID,19.9676,VALID,50,VALID,0,
2009-04-20, 03:46:00,VALID,916.491,VALID,0,VALID,100,VALID,0.0509425,VALID,19.9414,VALID,50,VALID,0,
2009-04-20, 03:47:00,VALID,916.505,VALID,0,VALID,100,VALID,0.0679233,VALID,19.9089,VALID,50,VALID,0,
2009-04-20, 03:48:00,VALID,916.532,VALID,0,VALID,100,VALID,0.0509425,VALID,19.8608,VALID,55,VALID,0,
2009-04-20, 03:49:00,VALID,916.543,VALID,0,VALID,100,VALID,0.0509425,VALID,19.8086,VALID,61,VALID,0,
2009-04-20, 03:50:00,VALID,916.555,VALID,0,VALID,100,VALID,0.0509425,VALID,19.7697,VALID,67,VALID,0,
2009-04-20, 03:51:00,VALID,916.564,VALID,0,VALID,100,VALID,0.0509425,VALID,19.7148,VALID,85,VALID,0,
2009-04-20, 03:52:00,VALID,916.555,VALID,0,VALID,100,VALID,-0.0509425,VALID,19.6382,VALID,95,VALID,0.0425145,
2009-04-20, 03:53:00,VALID,916.538,VALID,0,VALID,100,VALID,0,VALID,19.5798,VALID,91,VALID,0.0123547,